[[{"header":{"parameterUnit":"m.s-1","parameterCategory":1,"la1":30.2991,"la2":30.254,"lo1":-89.0895,"lo2":-89.0444,"dy":0.0017,"dx":0.0017,"nx":28,"ny":28,"refTime":"2024-02-28T03:00:00:Z","depth":0,"parameterNumber":2,"parameterNumberName":"U-component_of_WINDS"},"data":[0,0,0,0,0,0,0,0,0,0,0,0,0,0,0,0,0,0,0,0,0,0,0,0,0,0,0,0,0,0,0,0,0,0,0,0,0,0,0,0,0,0,0,0,0,0,0,0,0,0,0,0,0,0,0,0,0,0,3.0758,3.0758,0,3.0721,3.0721,3.0721,3.0689,3.0689,3.0689,3.0688,3.0651,3.0651,3.065,0,0,0,0,0,0,0,0,0,0,0,0,0,3.0805,3.0804,3.0758,3.0758,3.0758,3.0721,3.0721,3.072,3.0689,3.0689,3.0689,3.0688,3.0651,3.0651,3.065,0,0,0,0,0,0,0,0,0,0,0,0,0,3.0778,3.0804,3.0759,3.0738,3.0735,3.0722,3.0721,3.072,3.0689,3.0689,3.0688,3.0688,3.0652,3.0651,3.065,3.0654,0,0,3.0647,3.0646,0,0,0,0,0,0,0,0,3.078,3.0776,3.0741,3.0739,3.0737,3.0709,3.0724,3.0698,3.069,3.0707,3.0688,3.0688,3.0671,3.0668,3.0663,3.0652,3.065,3.0647,3.0646,3.0646,3.0645,0,0,0,0,0,0,0,3.0781,3.0778,3.0744,3.0741,3.0738,3.0731,3.0727,3.0719,3.0692,3.0705,3.0703,3.0699,3.067,3.0664,3.0662,3.065,3.0647,3.0646,3.0645,3.0645,3.0643,3.0644,0,0,0,0,0,0,3.0786,3.0779,3.0745,3.0743,3.0757,3.0731,3.0726,3.0719,3.0692,3.0688,3.0699,3.0698,3.0666,3.0663,3.066,3.0664,3.0646,3.0645,3.0644,3.0643,3.0644,3.0644,0,0,0,0,0,0,3.0787,3.0783,3.0746,3.076,3.0755,3.073,3.0723,3.0718,3.0712,3.0688,3.0683,3.0698,3.0665,3.0661,3.0656,3.0663,3.0644,3.0643,3.0642,3.0643,3.0644,3.0673,0,0,0,0,0,0,3.0789,3.0784,3.0784,3.0761,3.0755,3.0742,3.0723,3.0718,3.071,3.0708,3.0685,3.0681,3.0664,3.0658,3.0655,3.0661,3.0642,3.0641,3.0643,3.0644,3.0671,3.0674,3.0677,0,0,0,0,0,3.0791,3.0794,3.0785,3.0781,3.0755,3.0743,3.0739,3.072,3.0711,3.0712,3.0697,3.0682,3.0663,3.0657,3.0654,3.066,3.0641,3.0642,3.0644,3.0669,3.0674,3.0677,0,0,0,0,0,0,3.0818,3.079,3.078,3.0775,3.0762,3.0737,3.0738,3.0724,3.0713,3.0711,3.0688,3.0683,3.0681,3.067,3.0665,3.0664,3.065,3.0651,3.0671,3.0674,3.0678,3.068,3.0642,0,0,0,0,0,3.0824,3.0816,3.0792,3.0791,3.0784,3.0763,3.0756,3.0743,3.0728,3.0722,3.0706,3.0693,3.0684,3.0679,3.0669,3.0669,3.0665,3.0672,3.0675,3.0678,3.0679,3.068,3.0683,3.0648,3.0648,3.0648,0,0,3.0835,3.0819,3.0815,3.0796,3.0784,3.0777,3.0758,3.0751,3.0746,3.0721,3.0715,3.0704,3.0687,3.0686,3.0684,3.0676,3.0688,3.068,3.0682,3.0681,3.0682,3.0685,3.0688,3.0649,3.0649,3.0649,0,0,3.0853,3.0839,3.0837,3.0826,3.0809,3.0794,3.0794,3.0773,3.0764,3.0758,3.074,3.0734,3.0719,3.0709,3.0701,3.0718,3.0705,3.0716,3.0732,3.0734,3.0736,3.0739,3.0746,3.0749,3.0717,3.0717,3.0717,0,3.0869,3.0858,3.0838,3.0833,3.0826,3.0804,3.0802,3.0793,3.0773,3.0769,3.0761,3.0742,3.073,3.0726,3.073,3.0725,3.0725,3.0718,3.0738,3.074,3.0742,3.0748,3.0751,3.0718,3.0718,3.0718,3.0718,0,3.088,3.0873,3.0874,3.0856,3.0848,3.0845,3.0826,3.0821,3.0809,3.0796,3.0792,3.0776,3.0764,3.0762,3.075,3.0757,3.0753,3.0742,3.0727,3.0747,3.0753,3.0755,3.0721,3.072,3.072,3.0719,0,0,3.0912,3.0885,3.0886,3.0878,3.0859,3.0853,3.085,3.0838,3.0835,3.0823,3.0821,3.081,3.08,3.0792,3.0778,3.078,3.0796,3.0768,3.0768,3.0775,3.0805,3.0814,3.0817,3.0787,3.0787,3.0788,3.0807,0,3.0927,3.0919,3.0903,3.0901,3.0895,3.0875,3.0873,3.0861,3.085,3.0844,3.0832,3.0825,3.0811,3.0807,3.0807,3.0794,3.0802,3.0792,3.0785,3.0785,3.079,3.082,3.0829,3.0847,3.0809,3.0809,3.0809,0,3.0942,3.0932,3.093,3.0913,3.091,3.0908,3.0897,3.0892,3.0879,3.0871,3.0863,3.0849,3.0846,3.0833,3.083,3.0824,3.082,3.0814,3.0814,3.0813,3.0798,3.082,3.0852,3.0855,3.0812,3.0812,3.0812,0,3.0967,3.0953,3.0951,3.0945,3.0925,3.0924,3.0916,3.0902,3.0897,3.0888,3.0885,3.0875,3.087,3.0864,3.0848,3.084,3.0847,3.0833,3.0841,3.0842,3.0843,3.0843,3.0876,3.0841,3.0841,3.0841,3.0841,0,3.0986,3.0985,3.0962,3.096,3.096,3.0942,3.0943,3.0932,3.0921,3.0918,3.0901,3.0898,3.0878,3.0874,3.0861,3.0861,3.0859,3.0853,3.085,3.0855,3.0855,3.0852,3.085,3.0841,3.0841,3.0841,3.0841,0,3.1013,3.0997,3.0993,3.0975,3.0971,3.0972,3.0956,3.0955,3.0943,3.094,3.0938,3.092,3.0914,3.0898,3.0888,3.088,3.0884,3.0878,3.0888,3.0886,3.0896,3.0896,3.0928,3.0931,3.0894,3.0894,3.0894,0,3.1025,3.1025,3.1007,3.1004,3.0997,3.0992,3.0987,3.097,3.0965,3.0952,3.0953,3.0946,3.0939,3.0932,3.0918,3.0911,3.0905,3.0917,3.0903,3.0909,3.0906,3.0906,3.0907,3.0919,3.092,3.092,3.092,0,3.105,3.1043,3.1036,3.1028,3.1023,3.1015,3.1007,3.1006,3.0986,3.0983,3.0977,3.0972,3.0963,3.0957,3.0948,3.094,3.0928,3.0925,3.0927,3.0932,3.0938,3.0936,3.0897,3.0924,3.0924,3.0923,3.0923,3.0923,3.107,3.107,3.1058,3.1052,3.1045,3.1038,3.1036,3.1025,3.102,3.1011,3.1002,3.0998,3.0987,3.0974,3.0967,3.0964,3.0957,3.096,3.096,3.0961,3.0964,3.0939,3.0963,3.0963,3.0962,3.0962,3.0962,0,3.1095,3.1087,3.1082,3.1071,3.1067,3.1056,3.1047,3.1045,3.1041,3.1032,3.1027,3.1022,3.1016,3.1003,3.0997,3.0997,3.0991,3.0996,3.0996,3.0995,3.097,3.0969,3.1001,3.1001,3.1001,3.1001,3.1001,3.1001,3.1107,3.1106,3.1098,3.1094,3.1086,3.1082,3.1078,3.1072,3.1066,3.106,3.1056,3.1048,3.1038,3.1031,3.1026,3.1022,3.1021,3.1028,3.1023,3.1,3.0996,3.0993,3.0992,3.1028,3.1028,3.1047,3.1048,3.1048]},{"header":{"parameterUnit":"m.s-1","parameterCategory":1,"la1":30.2991,"la2":30.254,"lo1":-89.0895,"lo2":-89.0444,"dy":0.0017,"dx":0.0017,"nx":28,"ny":28,"refTime":"2024-02-28T03:00:00:Z","depth":0,"parameterNumber":3,"parameterNumberName":"V-component_of_WINDS"},"data":[0,0,0,0,0,0,0,0,0,0,0,0,0,0,0,0,0,0,0,0,0,0,0,0,0,0,0,0,0,0,0,0,0,0,0,0,0,0,0,0,0,0,0,0,0,0,0,0,0,0,0,0,0,0,0,0,0,0,2.922,2.922,0,2.9233,2.9233,2.9233,2.9232,2.9232,2.9232,2.9232,2.9245,2.9245,2.9246,0,0,0,0,0,0,0,0,0,0,0,0,0,2.9193,2.9193,2.922,2.922,2.922,2.9233,2.9233,2.9233,2.9232,2.9232,2.9232,2.9232,2.9245,2.9245,2.9246,0,0,0,0,0,0,0,0,0,0,0,0,0,2.9205,2.9193,2.922,2.9221,2.9221,2.9233,2.9233,2.9233,2.9232,2.9232,2.9232,2.9232,2.9244,2.9245,2.9246,2.9257,0,0,2.9248,2.9249,0,0,0,0,0,0,0,0,2.9204,2.9206,2.9221,2.9221,2.9221,2.9231,2.9228,2.9241,2.9233,2.9228,2.9232,2.9231,2.924,2.9241,2.9244,2.9257,2.9258,2.9248,2.9249,2.9249,2.9249,0,0,0,0,0,0,0,2.9204,2.9206,2.9225,2.9221,2.9221,2.9221,2.9222,2.9231,2.9236,2.9229,2.9229,2.923,2.924,2.9244,2.9245,2.9258,2.9248,2.9249,2.925,2.925,2.9281,2.9281,0,0,0,0,0,0,2.9202,2.9205,2.9224,2.9225,2.9212,2.9222,2.9223,2.9228,2.9236,2.9236,2.923,2.923,2.9243,2.9244,2.9245,2.9259,2.9249,2.925,2.925,2.9281,2.9281,2.9281,0,0,0,0,0,0,2.9202,2.9204,2.9224,2.9215,2.9218,2.9222,2.9228,2.9228,2.9232,2.9237,2.9238,2.9233,2.9242,2.9244,2.9254,2.9259,2.925,2.9251,2.928,2.9281,2.9281,2.9286,0,0,0,0,0,0,2.9201,2.9204,2.9208,2.9215,2.9218,2.9233,2.9228,2.9229,2.9233,2.9233,2.924,2.924,2.9242,2.9253,2.9255,2.926,2.9252,2.928,2.928,2.9281,2.9286,2.9287,2.9288,0,0,0,0,0,2.92,2.9209,2.9208,2.9211,2.9223,2.9233,2.9235,2.9237,2.9234,2.9238,2.9241,2.924,2.9258,2.9254,2.9256,2.9262,2.9279,2.928,2.9281,2.9285,2.9287,2.9288,0,0,0,0,0,0,2.9202,2.921,2.9209,2.922,2.9226,2.9233,2.9238,2.9238,2.9244,2.9244,2.9246,2.9247,2.9258,2.9261,2.9255,2.9273,2.9269,2.927,2.9271,2.9272,2.9273,2.9273,2.9252,0,0,0,0,0,2.9203,2.9211,2.9217,2.9226,2.9229,2.9233,2.9237,2.9239,2.9244,2.9247,2.9251,2.9256,2.9263,2.9268,2.9274,2.9286,2.9288,2.9291,2.9292,2.9293,2.9294,2.9301,2.9303,2.9284,2.9284,2.9284,0,0,2.9207,2.9212,2.9216,2.9227,2.9231,2.9239,2.9235,2.9243,2.9249,2.9248,2.9258,2.9261,2.9267,2.9278,2.9283,2.9281,2.93,2.9294,2.9295,2.9295,2.9302,2.9304,2.9306,2.9285,2.9284,2.9284,0,0,2.9217,2.9222,2.923,2.9235,2.9242,2.9245,2.9247,2.9254,2.9256,2.9266,2.9266,2.9272,2.9284,2.9289,2.9293,2.9306,2.9305,2.9308,2.9314,2.9321,2.9322,2.9324,2.9329,2.9331,2.9309,2.9309,2.9309,0,2.922,2.9232,2.9234,2.9243,2.9248,2.9247,2.9256,2.9261,2.9269,2.9273,2.927,2.9286,2.929,2.9302,2.9305,2.9308,2.9311,2.9307,2.9322,2.9323,2.9325,2.933,2.9332,2.9309,2.9309,2.9309,2.9309,0,2.9236,2.9244,2.925,2.926,2.9265,2.9273,2.9277,2.9282,2.9283,2.9286,2.9296,2.9301,2.9309,2.9312,2.9313,2.9325,2.9324,2.9321,2.9317,2.9327,2.9332,2.9333,2.931,2.931,2.9309,2.9309,0,0,2.9248,2.9259,2.9261,2.9265,2.9274,2.928,2.9288,2.9297,2.9301,2.9307,2.9315,2.9325,2.9324,2.9328,2.9329,2.9335,2.9346,2.9332,2.9332,2.9335,2.936,2.9362,2.9365,2.9345,2.9346,2.9346,2.936,0,2.9259,2.9275,2.9278,2.9292,2.9299,2.93,2.9307,2.9313,2.9316,2.9323,2.9326,2.9334,2.9331,2.9334,2.934,2.9343,2.9351,2.9342,2.9353,2.9353,2.9352,2.9367,2.9369,2.9382,2.9362,2.9362,2.9362,0,2.9275,2.9283,2.9297,2.9305,2.9309,2.9315,2.9324,2.933,2.9337,2.9339,2.9344,2.9345,2.9354,2.9349,2.9361,2.9355,2.936,2.9362,2.9363,2.9364,2.9359,2.937,2.9386,2.9389,2.9365,2.9365,2.9365,0,2.9283,2.9296,2.9307,2.9311,2.932,2.9325,2.9329,2.9336,2.9341,2.9348,2.9351,2.9359,2.9363,2.9369,2.9372,2.9368,2.9385,2.938,2.9387,2.9387,2.9391,2.9391,2.941,2.9393,2.9393,2.9393,2.9393,0,2.9296,2.9305,2.9311,2.9318,2.9328,2.9331,2.9341,2.9345,2.9351,2.9359,2.9359,2.9366,2.9369,2.9376,2.9378,2.9389,2.9391,2.9393,2.9393,2.9393,2.9393,2.9397,2.9396,2.9393,2.9393,2.9393,2.9393,0,2.9307,2.9311,2.9323,2.9331,2.9333,2.9341,2.9348,2.9354,2.9357,2.9367,2.9369,2.9374,2.9383,2.9387,2.9397,2.9399,2.9411,2.9411,2.9409,2.941,2.9417,2.9417,2.9439,2.9442,2.9423,2.9423,2.9423,0,2.9315,2.9323,2.9332,2.9337,2.9342,2.935,2.9355,2.9359,2.9364,2.9373,2.9378,2.9387,2.9395,2.9409,2.9414,2.9422,2.9422,2.9429,2.9423,2.9423,2.9423,2.9423,2.9424,2.943,2.9431,2.9431,2.9431,0,2.933,2.9332,2.934,2.9349,2.9356,2.9363,2.937,2.9374,2.9379,2.9385,2.9394,2.94,2.9411,2.9421,2.9429,2.9433,2.9433,2.9433,2.9435,2.9435,2.9435,2.9436,2.9413,2.9432,2.9432,2.9432,2.9432,2.9432,2.9341,2.9348,2.9355,2.9365,2.937,2.9377,2.9384,2.9388,2.9396,2.9406,2.9407,2.9418,2.9425,2.9436,2.9441,2.9449,2.9447,2.945,2.9451,2.9452,2.9453,2.9433,2.945,2.945,2.945,2.945,2.945,0,2.9356,2.9361,2.937,2.938,2.9387,2.9387,2.9395,2.9401,2.941,2.9417,2.9424,2.9436,2.9444,2.945,2.9459,2.9464,2.9465,2.9467,2.9467,2.9468,2.9453,2.9451,2.9467,2.9467,2.9467,2.9467,2.9467,2.9467,2.9365,2.9377,2.938,2.9395,2.94,2.941,2.9415,2.9421,2.9427,2.944,2.9447,2.9451,2.9457,2.9467,2.9475,2.9476,2.948,2.9483,2.9484,2.947,2.9469,2.9467,2.9465,2.9483,2.9483,2.9498,2.9498,2.9498]}]]